Location: Newark
(50.4667°N, 5.5667°E)
Time: 23:18:16
(UTC+00:00)

Envisat - Visible Passes

Search period start: 21 November 2019 00:00
Search period end: 01 December 2019 00:00
Orbit: 764 x 766 km, 98.1° (Epoch: 21 November)

Date Brightness Start Highest point End Pass type
(mag) Time Alt. Az. Time Alt. Az. Time Alt. Az.
21 Nov 3.4 17:44:32 10° S 17:49:34 65° WSW 17:54:39 10° NNW visible
22 Nov 5.1 05:48:44 10° NNE 05:53:15 31° E 05:57:45 10° SSE visible
22 Nov 2.9 17:07:47 10° SSE 17:12:48 65° ENE 17:17:51 10° N visible
22 Nov 5.5 18:48:33 10° SW 18:52:17 20° W 18:56:03 10° NW visible
23 Nov 6.0 05:12:58 10° NE 05:16:05 16° E 05:19:10 10° SE visible
23 Nov 3.6 16:31:40 10° SE 16:36:13 34° ENE 16:40:47 10° N visible
23 Nov 4.3 18:10:26 10° SSW 18:15:11 40° W 18:19:59 10° NNW visible
24 Nov 4.1 06:13:57 10° NNE 06:18:55 51° E 06:23:51 10° S visible
24 Nov 3.1 17:33:11 10° S 17:38:16 79° WSW 17:43:24 10° NNW visible
24 Nov 6.1 19:16:04 10° WSW 19:18:09 12° W 19:20:15 10° WNW visible
25 Nov 5.4 05:37:38 10° NE 05:41:52 26° E 05:46:05 10° SSE visible
25 Nov 3.1 16:56:38 10° SE 17:01:33 54° ENE 17:06:31 10° N visible
25 Nov 5.2 18:36:46 10° SSW 18:40:54 25° W 18:45:04 10° NW visible
26 Nov 6.1 05:02:19 10° ENE 05:04:38 13° E 05:06:55 10° ESE visible
26 Nov 3.8 16:20:43 10° ESE 16:25:02 29° ENE 16:29:21 10° N visible
26 Nov 3.9 17:58:56 10° S 18:03:50 49° W 18:08:48 10° NNW visible
27 Nov 4.5 06:02:45 10° NNE 06:07:35 41° E 06:12:22 10° SSE visible
27 Nov 2.9 17:21:55 10° SSE 17:27:00 85° ENE 17:32:07 10° NNW visible
27 Nov 5.8 19:03:46 10° WSW 19:06:43 15° W 19:09:41 10° NW visible
28 Nov 5.7 05:26:38 10° NE 05:30:30 21° E 05:34:18 10° SE visible
28 Nov 3.3 16:45:32 10° SE 16:50:20 44° ENE 16:55:10 10° N visible
28 Nov 4.9 18:25:04 10° SSW 18:29:31 30° W 18:34:00 10° NNW visible
29 Nov 6.4 04:52:33 10° ENE 04:53:10 10° E 04:53:47 10° E visible
29 Nov 3.5 06:28:05 10° NNE 06:33:11 67° ESE 06:38:15 10° S visible
29 Nov 4.0 16:09:50 10° ESE 16:13:52 24° ENE 16:17:53 10° N visible
29 Nov 3.5 17:47:31 10° S 17:52:32 60° W 17:57:34 10° NNW visible
30 Nov 4.9 05:51:36 10° NNE 05:56:14 34° E 06:00:49 10° SSE visible
30 Nov 2.9 17:10:41 10° SSE 17:15:44 71° ENE 17:20:49 10° N visible
30 Nov 5.6 18:51:44 10° SW 18:55:18 19° W 18:58:52 10° NW visible
